Date String (YYYY-MM-DD hh:mm:ss) UTC,Instrument flags,Ambient pressure (hPa),Sample flow (lpm),Bypass flow (lpm),Sample temperature (°C),Ambient temperature (°C),ASC tube jacket temperature (°C),LED temperature (°C),Box temperature (°C),Sample RH (%),Span deviation,Mass concentration (μg/m³),Mass concentration (μg/m³),Mass concentration (μg/m³)
DateTimeUTC,F1_M11,P_M11,Q1_M11,Q2_M11,T1_M11,T2_M11,T3_M11,T4_M11,T5_M11,U1_M11,ZSPAN_M11,X0_M11,X2_M11,X1_M11
2021-12-01 00:00:00,,0824.4,4.99,0.00,28.3,27.5,00.0,37.2,30.0,04.0,0000.0,0013.71,0001.81,0000.86
2021-12-01 00:01:00,,0824.3,4.99,0.00,28.3,27.5,00.0,37.2,30.0,03.9,0000.0,0011.87,0001.71,0000.83
2021-12-01 00:02:00,,0824.3,5.02,0.00,28.3,27.5,00.0,37.2,30.0,04.0,0000.0,0011.47,0001.63,0000.79
2021-12-01 00:03:00,,0824.2,5.00,0.00,28.3,27.4,00.0,37.2,30.0,03.9,0000.0,0011.03,0001.54,0000.73
2021-12-01 00:04:00,,0824.2,5.00,0.00,28.3,27.4,00.0,37.2,29.9,03.8,0000.0,0010.63,0001.40,0000.66
2021-12-01 00:05:00,,0824.2,4.99,0.00,28.3,27.4,00.0,37.2,30.0,03.8,0000.0,0011.19,0001.28,0000.59
2021-12-01 00:06:00,,0824.3,5.00,0.00,28.3,27.4,00.0,37.2,30.0,03.8,0000.0,0011.61,0001.16,0000.52
2021-12-01 00:07:00,,0824.2,5.00,0.00,28.3,27.4,00.0,37.2,29.9,03.7,0000.0,0012.26,0001.07,0000.46
2021-12-01 00:08:00,,0824.2,5.00,0.00,28.2,27.4,00.0,37.2,29.9,03.8,0000.0,0013.19,0001.01,0000.40
2021-12-01 00:09:00,,0824.2,4.99,0.00,28.3,27.4,00.0,37.2,29.9,03.8,0000.0,0012.16,0000.98,0000.36
2021-12-01 00:10:00,,0824.2,5.00,0.00,28.2,27.4,00.0,37.2,29.9,03.7,0000.0,0011.02,0000.95,0000.36
2021-12-01 00:11:00,,0824.2,4.99,0.00,28.3,27.4,00.0,37.2,29.9,03.7,0000.0,0009.55,0000.91,0000.36
2021-12-01 00:12:00,,0824.3,5.01,0.00,28.3,27.4,00.0,37.2,30.0,03.7,0000.0,0009.69,0000.93,0000.36
2021-12-01 00:13:00,,0824.3,4.99,0.00,28.3,27.4,00.0,37.3,30.0,03.7,0000.0,0009.81,0000.95,0000.36
2021-12-01 00:14:00,,0824.3,5.01,0.00,28.2,27.4,00.0,37.2,29.9,03.8,0000.0,0010.59,0000.94,0000.36
2021-12-01 00:15:00,,0824.3,4.99,0.00,28.2,27.4,00.0,37.2,29.9,03.8,0000.0,0010.87,0000.96,0000.36
2021-12-01 00:16:00,,0824.3,5.01,0.00,28.2,27.4,00.0,37.2,29.9,03.8,0000.0,0010.57,0000.97,0000.36
2021-12-01 00:17:00,,0824.3,4.99,0.00,28.3,27.4,00.0,37.3,29.9,03.8,0000.0,0010.53,0001.00,0000.37
2021-12-01 00:18:00,,0824.3,5.01,0.00,28.3,27.4,00.0,37.3,29.9,03.7,0000.0,0009.73,0000.98,0000.37
2021-12-01 00:19:00,,0824.2,4.99,0.00,28.3,27.4,00.0,37.3,29.9,03.7,0000.0,0008.29,0000.94,0000.36
2021-12-01 00:20:00,,0824.3,5.00,0.00,28.3,27.4,00.0,37.3,29.9,03.7,0000.0,0008.14,0000.91,0000.36
2021-12-01 00:21:00,,0824.3,5.01,0.00,28.3,27.4,00.0,37.3,29.9,03.7,0000.0,0007.26,0000.91,0000.36
2021-12-01 00:22:00,,0824.3,5.00,0.00,28.3,27.4,00.0,37.3,29.9,03.8,0000.0,0007.33,0000.94,0000.37
2021-12-01 00:23:00,,0824.4,5.00,0.00,28.3,27.4,00.0,37.3,29.9,03.7,0000.0,0007.73,0000.88,0000.37
2021-12-01 00:24:00,,0824.3,4.99,0.00,28.3,27.4,00.0,37.3,29.9,03.7,0000.0,0007.75,0000.81,0000.36
2021-12-01 00:25:00,,0824.3,5.01,0.00,28.3,27.4,00.0,37.3,29.9,03.8,0000.0,0006.42,0000.75,0000.36
2021-12-01 00:26:00,,0824.4,5.00,0.00,28.3,27.4,00.0,37.3,29.9,03.8,0000.0,0005.39,0000.71,0000.36
2021-12-01 00:27:00,,0824.4,5.00,0.00,28.3,27.4,00.0,37.3,29.9,03.8,0000.0,0004.38,0000.66,0000.35
2021-12-01 00:28:00,,0824.4,4.99,0.00,28.3,27.4,00.0,37.3,30.0,03.8,0000.0,0003.36,0000.61,0000.35
2021-12-01 00:29:00,,0824.4,5.02,0.00,28.3,27.4,00.0,37.3,29.9,03.8,0000.0,0003.25,0000.59,0000.35
2021-12-01 00:30:00,,0824.3,5.01,0.00,28.3,27.4,00.0,37.3,29.9,03.8,0000.0,0003.19,0000.60,0000.36
2021-12-01 00:31:00,,0824.3,4.99,0.00,28.3,27.4,00.0,37.3,30.0,03.6,0000.0,0003.20,0000.60,0000.37
2021-12-01 00:32:00,,0824.4,5.01,0.00,28.3,27.4,00.0,37.3,30.0,03.6,0000.0,0003.29,0000.60,0000.37
2021-12-01 00:33:00,,0824.4,5.00,0.00,28.3,27.4,00.0,37.3,30.0,03.6,0000.0,0004.90,0000.60,0000.37
2021-12-01 00:34:00,,0824.4,5.00,0.00,28.3,27.4,00.0,37.3,30.0,03.6,0000.0,0004.41,0000.62,0000.37
2021-12-01 00:35:00,,0824.4,4.99,0.00,28.3,27.4,00.0,37.3,30.0,03.6,0000.0,0003.37,0000.62,0000.37
2021-12-01 00:36:00,,0824.5,5.00,0.00,28.3,27.4,00.0,37.3,30.0,03.5,0000.0,0003.44,0000.61,0000.38
2021-12-01 00:37:00,,0824.4,5.00,0.00,28.3,27.4,00.0,37.3,29.9,03.5,0000.0,0003.82,0000.58,0000.38
2021-12-01 00:38:00,,0824.5,5.00,0.00,28.3,27.4,00.0,37.3,29.9,03.5,0000.0,0004.78,0000.58,0000.38
2021-12-01 00:39:00,,0824.6,5.01,0.00,28.3,27.4,00.0,37.3,29.9,03.5,0000.0,0005.78,0000.60,0000.39
2021-12-01 00:40:00,,0824.6,5.01,0.00,28.3,27.4,00.0,37.3,29.9,03.5,0000.0,0006.18,0000.59,0000.39
2021-12-01 00:41:00,,0824.5,4.99,0.00,28.3,27.4,00.0,37.3,29.9,03.5,0000.0,0006.38,0000.58,0000.38
2021-12-01 00:42:00,,0824.4,5.01,0.00,28.3,27.3,00.0,37.3,29.9,03.5,0000.0,0006.61,0000.61,0000.38
2021-12-01 00:43:00,,0824.5,4.99,0.00,28.3,27.3,00.0,37.3,29.9,03.5,0000.0,0007.54,0000.61,0000.38
2021-12-01 00:44:00,,0824.8,5.00,0.00,28.3,27.3,00.0,37.3,29.9,03.5,0000.0,0006.86,0000.59,0000.38
2021-12-01 00:45:00,,0824.6,5.00,0.00,28.3,27.3,00.0,37.3,29.8,03.5,0000.0,0007.36,0000.56,0000.39
2021-12-01 00:46:00,,0824.7,4.99,0.00,28.3,27.3,00.0,37.3,29.9,03.5,0000.0,0007.39,0000.54,0000.38
2021-12-01 00:47:00,,0824.5,5.01,0.00,28.3,27.3,00.0,37.3,29.9,03.4,0000.0,0008.24,0000.55,0000.38
2021-12-01 00:48:00,,0824.6,5.01,0.00,28.3,27.3,00.0,37.3,29.9,03.4,0000.0,0008.06,0000.58,0000.38
2021-12-01 00:49:00,,0824.7,5.00,0.00,28.3,27.2,00.0,37.3,29.9,03.4,0000.0,0007.62,0000.59,0000.37
2021-12-01 00:50:00,,0824.8,5.01,0.00,28.3,27.3,00.0,37.3,29.9,03.5,0000.0,0006.90,0000.58,0000.37
2021-12-01 00:51:00,,0824.9,4.99,0.00,28.3,27.3,00.0,37.3,29.9,03.5,0000.0,0006.57,0000.60,0000.36
2021-12-01 00:52:00,,0824.9,4.99,0.00,28.3,27.2,00.0,37.3,29.9,03.5,0000.0,0006.43,0000.63,0000.37
2021-12-01 00:53:00,,0824.9,5.00,0.00,28.3,27.2,00.0,37.3,29.9,03.4,0000.0,0006.16,0000.60,0000.37
2021-12-01 00:54:00,,0825.1,5.00,0.00,28.3,27.3,00.0,37.3,30.0,03.5,0000.0,0005.05,0000.61,0000.37
2021-12-01 00:55:00,,0825.2,5.00,0.00,28.3,27.3,00.0,37.3,30.0,03.7,0000.0,0005.10,0000.63,0000.37
2021-12-01 00:56:00,,0825.3,5.00,0.00,28.3,27.3,00.0,37.3,30.0,07.6,0000.0,0006.34,0001.08,0000.57
2021-12-01 00:57:00,,0825.3,5.00,0.00,28.3,27.4,00.0,37.3,30.1,10.0,0000.0,0010.74,0002.00,0001.06
2021-12-01 00:58:00,,0825.3,4.98,0.00,28.3,27.4,00.0,37.3,30.1,10.2,0000.0,0013.01,0002.95,0001.62
2021-12-01 00:59:00,,0825.3,5.01,0.00,28.3,27.4,00.0,37.3,30.1,10.1,0000.0,0015.55,0003.56,0002.12
